Hourly Data Report for July 29, 2021

LYNN LAKE
MANITOBA
Current Station Operator: NAVCAN

56°51'50.000" N
101°04'34.000" W
356.60 m
5061645
71078
YYL

Download Data

Hourly Data (July 2021)
Hourly Data Report for July 29, 2021
TIME
LST
Temp Definition
°C
Dew Point Definition
°C
Rel Hum Definition
%
Precip. Amount Definition
mm

Wind Dir Definition
10's deg

Wind Spd Definition
km/h
Visibility Definition
km
Stn Press Definition
kPa
Hmdx Definition


Wind Chill Definition


Weather Definition


00:00 9.9 8.7 92 0.0 16 5 16.1 97.76     LegendNANA
01:00 10.0 6.5 79 0.0 16 8 16.1 97.75     LegendNANA
02:00 10.2 6.4 77 0.0 19 8 16.1 97.74     LegendNANA
03:00 10.5 6.9 78 0.0 18 8 16.1 97.74     LegendNANA
04:00 10.8 6.9 77 0.0 20 5 16.1 97.74     LegendNANA
05:00 12.0 6.9 71 0.0 19 9 16.1 97.73     LegendNANA
06:00 12.2 7.9 75 0.0 17 8 16.1 97.73     Rain
07:00 12.0 9.8 86 0.0 21 8 16.1 97.71     Rain
08:00 13.6 9.9 78 0.0 17 11 16.1 97.67     LegendNANA
09:00 16.8 11.7 72 0.0 20 15 16.1 97.65     LegendNANA
10:00 17.8 11.9 68 0.0 19 13 16.1 97.60     LegendNANA
11:00 19.7 12.4 63 0.0 19 11 16.1 97.56     LegendNANA
12:00 21.7 11.6 52 0.0 21 21 16.1 97.49     LegendNANA
13:00 22.1 12.4 54 0.0 20 21 16.1 97.43 25   LegendNANA
14:00 23.0 11.8 49 0.0 24 11 16.1 97.37 25   LegendNANA
15:00 22.9 11.6 48 0.0 28 17 16.1 97.31 25   LegendNANA
16:00 25.0 9.6 37 0.0 29 21 16.1 97.26 26   LegendNANA
17:00 25.3 9.4 36 0.0 31 17 16.1 97.24 26   LegendNANA
18:00 24.9 9.4 37 0.0 29 18 16.1 97.24 26   LegendNANA
19:00 23.5 9.5 41 0.0 26 9 16.1 97.21 25   LegendNANA
20:00 22.5 10.0 45 0.0 24 5 16.1 97.16     LegendNANA
21:00 19.8 10.8 56 0.0 21 5 16.1 97.15     LegendNANA
22:00 18.3 11.5 64 0.0 20 8 16.1 97.13     LegendNANA
23:00 15.6 10.6 72 0.0 23 8 16.1 97.13     LegendNANA

Notes on Data Quality.

Legend

  • E = Estimated
  • M = Missing
  • NA = Not Available*
  • [empty] = Indicates an unobserved value
Date modified: